Location: Mahannah Oil Field
(37.4664°N, 96.6003°W)
Time: 15:03:03
(UTC+00:00)

Vanguard 2 Rocket - Pass Details

Date: 28 January 2021
Orbit: 554 x 3325 km, 32.9° (Epoch: 06 March)

Event Time Altitude Azimuth Distance (km) Brightness Sun altitude
Rises 22:16:48 0° 262° (W) 6,801 12.5 14.6°
Reaches altitude 10° 22:21:54 10° 261° (W) 5,446 12.2 13.8°
Maximum altitude 22:36:37 70° 182° (S) 1,853 8.8 11.4°
Drops below altitude 10° 22:44:42 10° 100° (E) 3,150 9.3 10.1°
Sets 22:46:54 0° 98° (E) 3,856 9.7 9.7°
